Imperial, CA

6:06 PM PDT on August 20, 2017 (GMT -0700)
Imperial County

Weather History for KIPL - February, 2014

Change the Weather History Date:

Wednesday, February 19, 2014

  Actual Average Record
Temperature  
Mean Temperature 70 °F -  
Max Temperature 84 °F 75 °F 89 °F (1977)
Min Temperature 55 °F 47 °F 33 °F (1955)
Cooling Degree Days 4    
Growing Degree Days 20 (Base 50)    
Moisture  
Dew Point 37 °F    
Average Humidity 35    
Maximum Humidity 60    
Minimum Humidity 13    
Precipitation  
Precipitation 0.00 in - - ()
Sea Level Pressure  
Sea Level Pressure 29.81 in    
Wind  
Wind Speed 3 mph (SE)    
Max Wind Speed 12 mph    
Max Gust Speed -    
Visibility 10 miles    
Events      
Averages and records for this station are not official NWS values.
T = Trace of Precipitation, MM = Missing Value Source: NWS Daily Summary

Daily Weather History Graph

Daily Weather History Graph

Search for Another Location

Airport or City:

Trip Planner

Search our weather history database for the weather conditions in past years. The results will help you decide how hot, cold, wet, or windy it might be!

Date:

Astronomy

Feb. 19, 2014 Rise Set
Actual Time 6:21 AM PST 5:31 PM PST
Civil Twilight 5:56 AM PST 5:56 PM PST
Nautical Twilight 5:27 AM PST 6:25 PM PST
Astronomical Twilight 4:58 AM PST 6:53 PM PST
Moon 10:10 PM PST (2/19) 8:46 AM PST (2/19)
Length of Visible Light 12h 00m
Length of Day
11h 10m
Waning Gibbous, 79% of the Moon is Illuminated
Feb 19
Waning Gibbous
Feb 22
Last Quarter
Mar 1
New
Mar 8
First Quarter
Mar 16
Full

Hourly Weather History & Observations

Time (PST) Temp. Dew Point Humidity Pressure Visibility Wind Dir Wind Speed Gust Speed Precip Events Conditions
12:53 AM 61.0 °F 33.1 °F 35% 29.84 in 10.0 mi Calm Calm - N/A   Clear
1:53 AM 57.9 °F 36.0 °F 44% 29.83 in 10.0 mi NW 3.5 mph - N/A   Clear
2:53 AM 63.0 °F 36.0 °F 37% 29.83 in 10.0 mi WNW 4.6 mph - N/A   Clear
3:53 AM 59.0 °F 36.0 °F 42% 29.82 in 10.0 mi WSW 5.8 mph - N/A   Clear
4:53 AM 59.0 °F 35.1 °F 41% 29.81 in 10.0 mi Calm Calm - N/A   Clear
5:53 AM 57.9 °F 35.1 °F 42% 29.81 in 10.0 mi Calm Calm - N/A   Clear
6:53 AM 57.0 °F 33.1 °F 40% 29.82 in 10.0 mi Calm Calm - N/A   Clear
7:53 AM 57.9 °F 39.9 °F 51% 29.85 in 10.0 mi Calm Calm - N/A   Clear
8:53 AM 66.0 °F 37.0 °F 34% 29.86 in 10.0 mi Calm Calm - N/A   Clear
9:53 AM 71.1 °F 39.0 °F 31% 29.87 in 10.0 mi Calm Calm - N/A   Clear
10:53 AM 73.9 °F 37.0 °F 26% 29.86 in 10.0 mi ESE 3.5 mph - N/A   Clear
11:53 AM 77.0 °F 37.9 °F 24% 29.81 in 10.0 mi ESE 5.8 mph - N/A   Clear
12:53 PM 80.1 °F 33.1 °F 18% 29.78 in 10.0 mi SE 5.8 mph - N/A   Clear
1:53 PM 82.9 °F 27.0 °F 13% 29.75 in 10.0 mi Variable 4.6 mph - N/A   Clear
2:53 PM 84.0 °F 30.9 °F 15% 29.74 in 10.0 mi ESE 9.2 mph - N/A   Clear
3:53 PM 82.9 °F 39.0 °F 21% 29.73 in 10.0 mi East 11.5 mph - N/A   Clear
4:53 PM 80.1 °F 39.9 °F 24% 29.74 in 10.0 mi SE 10.4 mph - N/A   Clear
5:53 PM 75.0 °F 37.0 °F 25% 29.75 in 10.0 mi SE 8.1 mph - N/A   Clear
6:53 PM 71.1 °F 39.0 °F 31% 29.77 in 10.0 mi SE 5.8 mph - N/A   Clear
7:53 PM 66.9 °F 39.0 °F 36% 29.79 in 10.0 mi SSE 3.5 mph - N/A   Clear
8:53 PM 62.1 °F 41.0 °F 46% 29.82 in 10.0 mi ENE 3.5 mph - N/A   Clear
9:53 PM 61.0 °F 39.9 °F 46% 29.83 in 10.0 mi Calm Calm - N/A   Clear
10:53 PM 55.9 °F 42.1 °F 60% 29.84 in 10.0 mi WSW 3.5 mph - N/A   Clear
11:53 PM 55.0 °F 39.9 °F 57% 29.86 in 10.0 mi NNE 3.5 mph - N/A   Clear